Tracking 33199 objects as of 16-Feb-2026
HD Live streaming from Space Station
objects crossing your sky now

STARLINK-30462

Track STARLINK-30462 now!
10-day predictions
STARLINK-30462 is classified as:


NORAD ID: 57902
Int'l Code: 2023-146M
Perigee: 565.4 km
Apogee: 567.0 km
Inclination: 43.0 °
Period: 95.8 minutes
Semi major axis: 6937 km
RCS: Unknown
Launch date: September 20, 2023
Source: United States (US)
Launch site: AIR FORCE EASTERN TEST RANGE (AFETR)
Your satellite tracking list
Your tracking list is empty




NASA's NSSDC Master Catalog

Two Line Element Set (TLE):
1 57902U 23146M   26047.45601512  .00000124  00000-0  24228-4 0  9991
2 57902  43.0028  68.5957 0001134 279.8635  80.2079 15.02537928133837
Source of the keplerian elements: AFSPC